Location: DARK SKY Beskydy - Park tmavé oblohy, www.darkskybeskydy.cz
(49.4926°N, 18.5016°E)
Time: 03:27:38
(UTC+01:00)

N. Korean satellite - Pass Details

Date: 15 December 2022
Orbit: 407 x 442 km, 97.3° (Epoch: 05 February)

Event Time Altitude Azimuth Distance (km) Brightness Sun altitude
Rises 05:01:57 0° 15° (NNE) 2,478 10.2 -23.7°
Reaches altitude 10° 05:04:02 10° 19° (NNE) 1,591 9.3 -23.3°
Enters shadow 05:05:42 26° 27° (NNE) 925 8.1 -23.1°
Exits shadow 05:08:35 36° 168° (SSE) 721 7.5 -22.6°
Drops below altitude 10° 05:10:42 10° 183° (S) 1,544 9.2 -22.3°
Sets 05:12:42 0° 187° (S) 2,396 10.1 -21.9°
